Lapse_Rate
5.0 5.3 5.8 6.9 6.9 8.0 7.6 7.0 6.1 6.3 6.7 7.5 7.8 8.0 8.5 8.2 8.5 8.6 9.4 9.3 9.1 9.4
4.8 4.7 4.8 5.3 5.1 5.5 6.2 5.7 6.7 6.3 6.6 7.5 7.2 6.3 6.4 6.9 6.9 5.9 8.2 9.0 9.3 9.4
5.1 4.5 4.2 4.1 4.1 4.2 5.5 6.6 6.8 7.4 8.1 6.7 6.4 6.1 6.1 6.3 7.0 5.4 8.1 9.2 8.4 9.2
5.2 4.5 4.1 4.4 4.2 4.5 6.0 6.7 6.7 7.1 7.3 5.8 6.0 6.0 5.4 5.2 4.0 4.4 7.8 8.3 8.6 9.1
4.2 4.0 3.9 4.1 3.9 4.4 5.4 5.8 6.8 7.3 6.8 6.4 6.1 6.7 5.3 3.9 4.4 6.1 6.4 7.6 8.7 8.3
2.9 3.4 3.1 2.8 3.3 4.3 5.4 5.5 6.0 5.4 6.3 6.2 4.3 4.4 3.1 4.9 5.9 5.6 6.3 7.2 6.6 6.9
1.9 3.2 2.7 3.0 3.2 3.6 4.7 4.7 2.6 1.5 2.3 2.0 1.4 1.7 3.0 5.4 2.5 0.4 1.3 0.4 0.7 0.6
3.0 4.0 3.8 3.5 3.8 4.7 5.4 4.1 2.4 2.9 3.3 2.9 1.9 4.1 4.5 1.0 0.2 1.6 0.2 -0.0 1.9 2.6
4.7 4.5 3.9 4.1 4.3 4.4 3.2 3.5 3.5 2.2 3.2 2.4 5.0 3.6 2.8 3.3 4.0 3.2 2.7 3.8 3.6 2.4
3.8 4.1 3.7 3.2 3.3 3.1 3.1 3.2 3.8 3.5 3.0 4.2 6.0 3.8 4.0 4.3 5.4 5.2 5.5 5.2 4.1 5.4
3.3 3.2 2.6 2.5 3.5 3.9 3.9 4.6 4.4 4.6 5.8 7.4 4.5 3.4 4.2 4.4 6.6 6.7 7.3 6.7 7.3 4.8
3.0 2.8 2.9 3.3 4.6 4.6 5.8 7.0 5.2 5.6 8.7 5.3 3.3 3.5 3.8 5.6 7.4 7.9 8.2 8.5 7.2 7.4
3.3 3.7 3.8 4.2 4.8 6.5 7.5 8.0 9.1 9.2 9.0 5.0 3.4 3.8 4.5 5.8 6.7 7.4 7.3 8.2 8.0 5.5
4.4 5.0 5.0 4.9 5.3 6.7 8.4 8.7 8.1 7.6 6.5 4.5 3.2 3.8 3.9 5.4 6.0 6.0 6.3 6.9 6.5 4.2
Wind_Speed
14 10 9 13 12 12 12 13 16 15 14 14 14 11 11 10 10 11 9 11 7 7
13 12 10 11 12 9 12 11 16 15 16 15 14 13 12 8 9 10 7 8 8 7
13 11 11 11 12 12 10 13 16 15 15 15 14 14 12 10 9 9 5 8 9 8
10 11 10 10 11 12 11 12 14 14 15 13 14 12 11 11 9 10 9 7 10 10
11 11 11 10 10 10 13 13 13 14 15 13 12 10 11 12 10 11 9 9 11 10
12 12 13 13 13 12 12 14 13 11 13 14 10 8 7 9 11 10 6 5 6 7
13 13 13 14 15 17 11 12 12 12 9 6 7 8 8 7 10 11 7 8 9 7
13 13 14 15 15 15 15 13 15 12 10 9 11 7 12 11 11 10 11 10 9 9
13 13 14 14 14 14 13 14 14 13 12 12 9 14 16 15 12 12 13 12 12 12
13 13 14 14 13 13 13 13 14 13 13 13 12 17 18 17 12 13 14 14 13 12
13 12 13 12 13 13 13 13 13 14 14 12 11 17 16 13 14 12 14 14 14 14
12 15 15 14 14 14 15 14 14 15 15 14 14 15 13 11 12 12 13 12 13 14
11 14 16 15 15 14 14 14 12 14 13 17 16 17 12 14 9 14 10 12 12 13
8 12 14 15 14 15 14 13 12 12 12 13 14 14 13 12 11 10 10 9 8 9
Wind_Direction
210 213 204 191 176 185 188 181 171 175 175 175 178 172 179 175 177 181 195 190 197 189
208 200 193 186 182 181 185 174 172 175 169 171 173 163 171 170 175 158 204 179 190 188
206 194 186 178 181 180 187 176 168 168 164 161 163 166 167 156 145 139 182 171 174 190
195 189 181 179 171 175 175 167 162 162 159 154 163 160 150 152 144 135 172 161 176 175
178 169 162 160 158 151 154 150 155 162 150 152 150 156 151 137 145 155 158 168 170 161
171 168 164 151 147 153 156 148 138 138 146 144 143 125 105 137 147 141 121 142 129 154
165 168 153 152 143 141 127 116 109 111 87 102 105 107 114 148 103 95 93 92 84 73
168 163 156 150 145 142 144 131 113 107 109 115 107 132 133 114 109 133 111 98 100 101
158 154 150 146 139 136 125 124 120 129 132 129 167 152 144 144 154 139 128 132 116 113
143 148 142 135 136 135 135 136 135 143 149 163 153 148 151 160 146 140 142 137 137 138
140 137 135 134 140 139 138 141 144 152 165 143 153 152 159 165 146 139 143 143 144 132
153 147 143 142 144 144 145 151 154 164 160 149 155 160 162 161 140 142 138 137 137 150
151 151 148 145 147 143 148 154 156 157 151 150 155 166 162 142 132 135 131 133 135 122
152 155 148 142 144 160 153 145 144 143 142 148 153 162 163 158 149 148 145 138 127 126